DMSP 5D-2 F13 DEB, 42298

Orbit data source: Space-Track

DMSP 5D-2 F13 DEB, 42298 is space debris in SSO originally from a launch on Fri, 24 Mar 1995 UTC launched from the Air Force Western Test Range (AFWTR). Debris objects in space refer to the collection of defunct objects orbiting the Earth. Examples of debris include non-operational satellites, rocket bodies, and fragments generated from explosions, collisions, or faulty payload assembly.

Loading next visibility...
Identifier
42298, 1995-015HQ
Orbit
SSO
Country
Flag of USUS
Related business
Manufacturer
Unknown
Mission
Spacecraft
Bus & Motor
Unknown
Mass
Unknown
Launch date (UTC)
1995-03-24 (31 years ago)
Launch vehicle
Unknown
Launch site
Air Force Western Test Range (AFWTR)
Object type
Payload
Rocket body
Debris
Shape & HBR
Unknown shape, 0.1 m
Radar Cross Section
Small (<0.1 m²)

Expand to show TLE details & history
Last TLE update: 1 week ago

TLE from 1 week ago
0 DMSP 5D-2 F13 DEB
1 42298U 95015HQ  25338.17056686  .00008266  00000-0  75084-2 0  9993
2 42298  98.7210 315.3621 0259504  50.9601 311.4337 13.69578213507101
Epoch: 2025-12-04T04:05Z
TLE epoch observation values (Epoch: 2025-12-04T04:05:36.976Z)
Latitude
-0.00003°
Longitude
-179.27281°
Altitude
880.052 km
Speed
7.474 km/s
True Right ascension
21h 01m 26s
True Declination
0° 00' 00"
Sunlit
Object was in daylight at epoch
Visualization orbit readout
Latitude
Unknown
Longitude
Unknown
Altitude
Unknown
Speed
Unknown
Apparent Right ascension
Unknown
Apparent Declination
Unknown
Sunlit
N/A
Visualization observer readout
Local Sidereal Time
07:34:23
Azimuth
Unknown
Elevation
Unknown
Doppler factor
Unknown
Orbital elements
Apogee altitude
1,189.732 km
Perigee altitude
806.888 km
Semi-major axis
7,376.447 km
Eccentricity
0.02595
Inclination
98.721°
RAAN
315.3621°
Arg. of periapsis
50.9601°
True anomaly
309.15599°
Mean anomaly
311.4337°
Eccentric anomaly
310.29972°
Mean motion
3.42588 °/min
Orbital period
105.08 mins
BSTAR
0.0075084

Documentation

Showing up to 5 results
|